THOR ABLESTAR DEB, 2620

Orbit data source: Space-Track

THOR ABLESTAR DEB, 2620 is space debris in LEO originally from a launch on Thu, 05 Dec 1963 UTC launched from the Air Force Western Test Range (AFWTR). Debris objects in space refer to the collection of defunct objects orbiting the Earth. Examples of debris include non-operational satellites, rocket bodies, and fragments generated from explosions, collisions, or faulty payload assembly.

Loading next visibility...
Identifier
2620, 1963-049H
Orbit
LEO
Country
Flag of USUS
Related business
Manufacturer
Unknown
Mission
Spacecraft
Bus & Motor
Unknown
Mass
Unknown
Launch date (UTC)
1963-12-05 (62 years ago)
Launch vehicle
Unknown
Launch site
Air Force Western Test Range (AFWTR)
Object type
Payload
Rocket body
Debris
Shape & HBR
Unknown shape, 0.1 m
Radar Cross Section
Small (<0.1 m²)

Expand to show TLE details & history
Last TLE update: 10 hours ago

TLE from 10 hours ago
0 THOR ABLESTAR DEB
1 02620U 63049H   25294.40211253  .00000376  00000-0  49326-3 0  9995
2 02620  89.9143  74.5546 0016889  80.2293 305.7169 13.59611764 57942
Epoch: 2025-10-21T09:39Z
TLE epoch observation values (Epoch: 2025-10-21T09:39:02.522Z)
Latitude
25.81865°
Longitude
-100.25525°
Altitude
1,033.004 km
Speed
7.341 km/s
True Right ascension
04h 58m 23s
True Declination
25° 41' 21"
Sunlit
Object was in full shadow at epoch
Visualization orbit readout
Latitude
Unknown
Longitude
Unknown
Altitude
Unknown
Speed
Unknown
Apparent Right ascension
Unknown
Apparent Declination
Unknown
Sunlit
N/A
Visualization observer readout
Local Sidereal Time
14:25:10
Azimuth
Unknown
Elevation
Unknown
Doppler factor
Unknown
Orbital elements
Apogee altitude
1,046.658 km
Perigee altitude
1,021.621 km
Semi-major axis
7,412.276 km
Eccentricity
0.00169
Inclination
89.9143°
RAAN
74.5546°
Arg. of periapsis
80.2293°
True anomaly
305.55957°
Mean anomaly
305.7169°
Eccentric anomaly
305.63826°
Mean motion
3.40107 °/min
Orbital period
105.85 mins
BSTAR
0.00049326
Loading maneuver chart data...
Computing Atmospheric mass density...
Loading historical data...
Loading historical data...
Loading historical data...
Loading historical data...
Loading historical data...
Loading historical data...
Loading historical data...

Documentation

Showing up to 5 results
|